Погода в Инголи

Россия / Красноярский край     55°31′01″N   88°42′34″E
темп.,
°C
ветер,
м/с
пор.,
м/с
влажн.,
%
обл.,
%
осадки,
мм/ч
давл.,
гПа
погр.,
м
6 мая, чт
чт601:00+10юз5145596 0.0 1013410
04:00+7юз3870100 0.0 1013140
07:00+9ююз356864 0.0 101296
10:00+16ююз12507 0.0 1010458
13:00+20юз12425 0.0 10091073
16:00+21юз12435 0.0 10071488
19:00+19юз246319 0.0 1006234
22:00+13ю2283100 0.0 100633
7 мая, пт
пт701:00+12ююз377643 0.0 1005121
04:00+13ююз3771100 0.0 1003148
07:00+14ююз31269100 0.0 1003308
10:00+19зюз51156100 0.0 1003894
13:00+16з61069100 0.2 10051368
16:00+17з6946100 0.1 10062135
19:00+14з5114768 0.2 10091973
22:00+10зюз4106212 0.1 1012694
8 мая, сб
сб801:00+9з4106351 0.1 1014675
04:00+6з511735 0.1 1017573
07:00+6зюз49615 0.1 1018747
10:00+10з712485 0.0 10171908
13:00+14з71139100 0.0 10152291
16:00+12зюз7155774 0.0 10151717
19:00+12з7167179 0.8 10141643
22:00+10з61281100 0.9 1015973
9 мая, вс
вс901:00+7сз388452 1.6 1016772
04:00+3зсз39835 0.0 1019565
07:00+3сз47786 0.0 1021671
10:00+6сз45585 0.0 10211131
13:00+9ссз44455 0.0 10211439
16:00+11ссз344213 0.0 10211679
19:00+10с234477 0.0 10211626
22:00+5в277290 0.0 1023198
10 мая, пн
пн1001:00+3вюв22815 0.0 102336
04:00+2вюв11842 0.0 102211
07:00+4в23752 0.0 1022208
10:00+9в46535 0.0 1020993
13:00+13в56395 0.0 10171548
16:00+14в55355 0.0 10151877
19:00+13в4644100 0.0 10141412
22:00+9в31061100 0.0 1014312